Cordova, SC

7:42 AM EDT on August 24, 2016 (GMT -0400)
Orangeburg Municipal

Weather History for KOGB - November, 2012

Change the Weather History Date:

Friday, November 30, 2012

  Actual Average Record
Temperature  
Mean Temperature 50 °F 52 °F  
Max Temperature 66 °F 63 °F 81 °F (1970)
Min Temperature 34 °F 40 °F 20 °F (1959)
Degree Days  
Heating Degree Days 15 13  
Month to date heating degree days 373 278  
Since 1 July heating degree days 450 369  
Cooling Degree Days 0 0  
Month to date cooling degree days 5 15  
Year to date cooling degree days 2320 2102  
Moisture  
Dew Point 38 °F    
Average Humidity 71    
Maximum Humidity 92    
Minimum Humidity 42    
Precipitation  
Precipitation 0.00 in 0.11 in 1.87 in (1978)
Month to date precipitation 1.57 2.92  
Year to date precipitation 38.30 43.41  
Sea Level Pressure  
Sea Level Pressure 30.36 in    
Wind  
Wind Speed 1 mph (NE)    
Max Wind Speed 7 mph    
Max Gust Speed 9 mph    
Visibility 10 miles    
Events      
T = Trace of Precipitation, MM = Missing Value Source: NWS Daily Summary

Daily Weather History Graph

Daily Weather History Graph

Search for Another Location

Airport or City:

Trip Planner

Search our weather history database for the weather conditions in past years. The results will help you decide how hot, cold, wet, or windy it might be!

Date:

Astronomy

Nov. 30, 2012 Rise Set
Actual Time 7:08 AM EST 5:15 PM EST
Civil Twilight 6:41 AM EST 5:42 PM EST
Nautical Twilight 6:11 AM EST 6:13 PM EST
Astronomical Twilight 5:41 AM EST 6:43 PM EST
Moon 7:08 PM EST (11/30) 8:40 AM EST (11/30)
Length of Visible Light 11h 00m
Length of Day
10h 06m
Waning Gibbous, 96% of the Moon is Illuminated
Nov 30
Waning Gibbous
Dec 6
Last Quarter
Dec 13
New
Dec 20
First Quarter
Dec 28
Full

Hourly Weather History & Observations

Time (EST) Temp. Windchill Dew Point Humidity Pressure Visibility Wind Dir Wind Speed Gust Speed Precip Events Conditions
12:53 AM 37.0 °F - 32.0 °F 82% 30.40 in 9.0 mi Calm Calm - N/A   Clear
1:53 AM 37.0 °F - 34.0 °F 89% 30.40 in 10.0 mi Calm Calm - N/A   Mostly Cloudy
2:53 AM 37.0 °F 34.5 °F 33.1 °F 86% 30.38 in 10.0 mi North 3.5 mph - N/A   Scattered Clouds
3:53 AM 36.0 °F - 33.1 °F 89% 30.38 in 10.0 mi Calm Calm - N/A   Scattered Clouds
4:53 AM 35.1 °F - 32.0 °F 89% 30.38 in 10.0 mi Calm Calm - N/A   Clear
5:53 AM 35.1 °F - 32.0 °F 89% 30.38 in 10.0 mi Calm Calm - N/A   Clear
6:53 AM 35.1 °F - 32.0 °F 89% 30.39 in 10.0 mi Calm Calm - N/A   Partly Cloudy
7:53 AM 37.0 °F - 34.0 °F 89% 30.41 in 10.0 mi Calm Calm - N/A   Mostly Cloudy
8:53 AM 46.0 °F - 37.9 °F 73% 30.42 in 10.0 mi Calm Calm - N/A   Clear
9:53 AM 52.0 °F - 39.9 °F 63% 30.42 in 10.0 mi Calm Calm - N/A   Mostly Cloudy
10:53 AM 57.0 °F - 41.0 °F 55% 30.41 in 10.0 mi NE 3.5 mph - N/A   Mostly Cloudy
11:53 AM 61.0 °F - 37.0 °F 41% 30.38 in 10.0 mi SE 4.6 mph - N/A   Scattered Clouds
12:53 PM 63.0 °F - 39.9 °F 43% 30.35 in 10.0 mi NE 4.6 mph - N/A   Overcast
1:53 PM 63.0 °F - 41.0 °F 45% 30.32 in 10.0 mi North 5.8 mph - N/A   Mostly Cloudy
2:53 PM 64.0 °F - 42.1 °F 45% 30.31 in 10.0 mi Calm Calm - N/A   Mostly Cloudy
3:53 PM 64.9 °F - 43.0 °F 45% 30.30 in 10.0 mi Calm Calm - N/A   Clear
4:53 PM 63.0 °F - 43.0 °F 48% 30.31 in 10.0 mi NE 3.5 mph - N/A   Clear
5:53 PM 54.0 °F - 45.0 °F 72% 30.31 in 10.0 mi Calm Calm - N/A   Clear
6:53 PM 52.0 °F - 44.1 °F 74% 30.32 in 10.0 mi Calm Calm - N/A   Clear
10:53 PM 48.0 °F - 45.0 °F 89% 30.34 in 7.0 mi Calm Calm - N/A   Overcast
11:53 PM 48.0 °F - 44.1 °F 86% 30.33 in 9.0 mi Calm Calm - N/A   Mostly Cloudy